Terminal Aerodrome Forecast
Issued by NWS La Crosse, WI

Home | Current Version | Previous Version | Text Only | Print | Product List | Glossary On
Versions: 1 2 3 4 5 6 7 8 9 10 11 12 13 14 15 16 17 18 19 20 21 22 23 24 25 26 27 28 29 30 31 32 33 34 35 36 37 38 39 40 41 42 43 44 45
000
FTUS43 KARX 301121
TAFLSE
TAF
KLSE 301121Z 3012/3112 VRB04KT P6SM -SHRA SCT005 BKN015
      TEMPO 3012/3014 3SM -SHRA BR BKN005
     FM301600 31007KT P6SM BKN020
     FM302000 31007KT P6SM BKN030
     FM310300 VRB04KT P6SM SCT035
     FM310800 15004KT 3SM BR SCT003=

USA.gov is the U.S. government's official web portal to all federal, state and local government web resources and services.